TimeEDT,TemperatureF,Dew PointF,Humidity,Sea Level PressureIn,VisibilityMPH,Wind Direction,Wind SpeedMPH,Gust SpeedMPH,PrecipitationIn,Events,Conditions,WindDirDegrees,DateUTC
12:51 AM,34.0,15.1,46,30.09,10.0,South,9.2,-,N/A,,Mostly Cloudy,190,2014-03-14 04:51:00
1:51 AM,32.0,16.0,52,30.08,10.0,South,6.9,-,N/A,,Partly Cloudy,190,2014-03-14 05:51:00
2:51 AM,33.1,16.0,50,30.07,10.0,South,9.2,-,N/A,,Clear,180,2014-03-14 06:51:00
3:51 AM,32.0,17.1,54,30.06,10.0,South,6.9,-,N/A,,Clear,180,2014-03-14 07:51:00
4:51 AM,33.1,17.1,52,30.04,10.0,South,6.9,-,N/A,,Clear,170,2014-03-14 08:51:00
5:51 AM,33.1,18.0,54,30.03,10.0,South,8.1,-,N/A,,Clear,190,2014-03-14 09:51:00
6:51 AM,33.1,18.0,54,30.02,10.0,SSE,5.8,-,N/A,,Clear,150,2014-03-14 10:51:00
7:51 AM,34.0,19.0,54,30.00,10.0,South,6.9,-,N/A,,Partly Cloudy,170,2014-03-14 11:51:00
8:51 AM,37.9,19.9,48,30.01,10.0,South,11.5,-,N/A,,Partly Cloudy,190,2014-03-14 12:51:00
9:51 AM,41.0,23.0,49,30.00,10.0,SSW,13.8,20.7,N/A,,Partly Cloudy,200,2014-03-14 13:51:00
10:51 AM,46.0,26.1,46,29.97,10.0,SSW,19.6,28.8,N/A,,Scattered Clouds,210,2014-03-14 14:51:00
11:51 AM,51.1,28.0,41,29.94,10.0,SW,19.6,29.9,N/A,,Mostly Cloudy,220,2014-03-14 15:51:00
12:51 PM,54.0,30.0,40,29.91,10.0,SW,17.3,27.6,N/A,,Mostly Cloudy,220,2014-03-14 16:51:00
1:51 PM,59.0,30.9,35,29.87,10.0,SSW,21.9,31.1,N/A,,Mostly Cloudy,210,2014-03-14 17:51:00
2:51 PM,60.1,30.0,32,29.82,10.0,SSW,25.3,40.3,N/A,,Mostly Cloudy,210,2014-03-14 18:51:00
3:51 PM,61.0,28.9,30,29.79,10.0,SSW,26.5,40.3,N/A,,Mostly Cloudy,210,2014-03-14 19:51:00
4:51 PM,63.0,28.9,28,29.77,10.0,SSW,27.6,40.3,N/A,,Scattered Clouds,210,2014-03-14 20:51:00
5:51 PM,62.1,28.0,28,29.74,10.0,SSW,26.5,41.4,N/A,,Overcast,210,2014-03-14 21:51:00
6:51 PM,59.0,28.0,31,29.76,10.0,SSW,21.9,39.1,N/A,,Overcast,210,2014-03-14 22:51:00
7:51 PM,57.9,28.9,33,29.78,10.0,SSW,17.3,23.0,N/A,,Overcast,210,2014-03-14 23:51:00
8:51 PM,57.0,28.9,34,29.78,10.0,SSW,13.8,23.0,N/A,,Overcast,210,2014-03-15 00:51:00
9:51 PM,55.9,30.0,37,29.79,10.0,SSW,16.1,23.0,N/A,,Overcast,210,2014-03-15 01:51:00
10:51 PM,55.0,32.0,42,29.78,10.0,SW,13.8,21.9,N/A,,Overcast,220,2014-03-15 02:51:00
11:51 PM,50.0,41.0,71,29.83,10.0,WNW,24.2,32.2,0.00,Rain,Light Rain,290,2014-03-15 03:51:00
11:58 PM,48.2,41.0,76,29.83,7.0,WNW,21.9,-,0.00,Rain,Rain,300,2014-03-15 03:58:00